Location: Batang Balui
(2.7000°N, 113.7833°E)
Time: 00:08:40
(UTC+00:00)

GPS 2-14 Rocket1 - Pass Details

Date: 03 December 2021
Orbit: 472 x 534 km, 20.7° (Epoch: 27 January)

Event Time Altitude Azimuth Distance (km) Brightness Sun altitude
Rises 10:34:57 0° 305° (NW) 2,522 6.7 -5.7°
Reaches altitude 10° 10:37:18 10° 316° (NW) 1,655 5.6 -6.2°
Maximum altitude 10:40:45 32° 21° (NNE) 852 3.5 -7.0°
Drops below altitude 10° 10:44:18 10° 85° (E) 1,693 4.7 -7.9°
Enters shadow 10:44:35 - 87° (E) 1,794 4.8 -7.9°
